Location: Barrett Brook
(44.3123°N, 71.7154°W)
Time: 05:07:59
(UTC+00:00)

BlueWalker 3 - Visible Passes

Search period start: 07 October 2024 00:00
Search period end: 17 October 2024 00:00
Orbit: 473 x 485 km, 53.2° (Epoch: 06 October)

Date Brightness Start Highest point End Pass type
(mag) Time Alt. Az. Time Alt. Az. Time Alt. Az.
07 Oct 2.1 08:49:56 62° SE 08:49:56 62° SE 08:53:28 10° ENE visible
08 Oct 3.6 08:23:05 31° ENE 08:23:05 31° ENE 08:25:13 10° ENE visible
08 Oct 2.9 09:57:18 16° WNW 09:59:44 32° NNW 10:03:06 10° NE visible
09 Oct 4.8 07:56:07 15° ENE 07:56:07 15° ENE 07:56:55 10° ENE visible
09 Oct 2.8 09:30:19 28° WNW 09:31:25 34° NNW 09:34:50 10° NE visible
10 Oct 2.7 09:03:16 36° NNW 09:03:16 36° NNW 09:06:33 10° NE visible
11 Oct 3.6 08:36:08 27° NNE 08:36:08 27° NNE 08:38:12 10° NE visible
11 Oct 3.7 10:10:34 10° NW 10:13:24 20° N 10:16:15 10° NE visible
12 Oct 4.6 08:08:56 16° NE 08:08:56 16° NE 08:09:50 10° NE visible
12 Oct 3.7 09:43:07 15° NW 09:44:57 21° N 09:47:49 10° NE visible
13 Oct 3.6 09:15:51 20° NNW 09:16:28 21° N 09:19:22 10° NE visible
14 Oct 3.9 08:48:33 21° N 08:48:33 21° N 08:50:52 10° NE visible
14 Oct 3.6 10:23:45 10° NW 10:26:49 24° NNE 10:29:53 10° ENE visible
15 Oct 4.5 08:21:13 16° NNE 08:21:13 16° NNE 08:22:21 10° NE visible
15 Oct 3.7 09:55:24 11° NW 09:58:16 23° NNE 10:01:17 10° ENE visible
16 Oct 3.7 09:28:02 17° NNW 09:29:40 22° N 09:32:38 10° ENE visible
